Meteo Giornale » Osservazioni meteo Georgia » Kopitnari
ore: 17:00 - Osservazioni Meteo Kopitnari
Lat. 42° 11' N Lon. 42° 29' E Alt. 68 metri s.l.m.
26 °C
Sereno
Temp. 24 Ore
18 °C
27 °C
Ovest
20.3 Km/h
Dew point 20 °C
Umidità 69 %
Visibilità 10 Km
Il sole sorge alle ore 06:35
Il sole tramonta alle ore 19:44
| Data e Ora | Cielo e Fenomeni | T °C | DP °C | Um. % | Pres. hPa | Vis. km | Vento km/h | |
|---|---|---|---|---|---|---|---|---|
| Oggi h: 17:00 | Sereno | 26 | 20 | 69 | 1014 | 10 | O 20.3 | |
| Oggi h: 16:30 | Sereno | 26 | 19 | 65 | 1014 | 10 | O/SO 20.3 | |
| Oggi h: 16:00 | Sereno | 27 | 19 | 61 | 1014 | 10 | O 16.7 | |
| Oggi h: 15:30 | Nuvoloso | 26 | 19 | 65 | 1014 | 10 | O 13 | |
| Oggi h: 15:00 | Nuvoloso | 26 | 19 | 65 | 1014 | 10 | O 14.8 | |
| Oggi h: 14:30 | Nuvoloso | 27 | 19 | 61 | 1014 | 10 | SO 11.1 | |
| Oggi h: 14:00 | Nuvoloso | 27 | 20 | 65 | 1014 | 10 | N 7.4 | |
| Oggi h: 13:30 | Nuvoloso | 26 | 17 | 57 | 1014 | 10 | O/SO 7.4 | |
| Oggi h: 13:00 | Nuvoloso | 25 | 19 | 69 | 1014 | 10 | N 5.5 | |
| Oggi h: 12:30 | Nuvoloso | 25 | 19 | 69 | 1014 | 10 | N 3.7 | |
| Oggi h: 12:00 | Nuvoloso | 24 | 20 | 78 | 1014 | 10 | N 5.5 | |
| Oggi h: 11:30 | Nuvoloso | 23 | 20 | 83 | 1014 | 10 | N 5.5 | |
| Oggi h: 11:00 | Molto Nuvoloso | 23 | 20 | 83 | 1015 | 10 | N 3.7 | |
| Oggi h: 10:30 | Molto Nuvoloso | 21 | 20 | 94 | 1015 | 10 | N 3.7 | |
| Oggi h: 10:00 | Molto Nuvoloso | 21 | 19 | 88 | 1015 | 10 | N 3.7 | |
| Oggi h: 09:30 | Molto Nuvoloso | 20 | 19 | 93 | 1015 | 10 | N 3.7 | |
| Oggi h: 09:00 | Molto Nuvoloso | 19 | 18 | 93 | 1015 | 10 | N 5.5 | |
| Oggi h: 08:30 | Molto Nuvoloso | 19 | 18 | 93 | 1015 | 10 | E/NE 7.4 | |
| Oggi h: 08:00 | Molto Nuvoloso | 19 | 18 | 93 | 1014 | 10 | N 3.7 | |
| Oggi h: 07:30 | Foschia | 18 | 18 | 100 | 1014 | 2 | N 5.5 | |
| Oggi h: 07:00 | Nuvoloso | 18 | 18 | 100 | 1014 | 8 | N 5.5 | |
| Oggi h: 06:30 | Sereno | 19 | 18 | 93 | 1014 | 10 | N 3.7 | |
| Oggi h: 06:00 | Molto Nuvoloso | 18 | 18 | 100 | 1013 | 10 | E/NE 7.4 | |
| Oggi h: 05:30 | Molto Nuvoloso | 19 | 18 | 93 | 1013 | 10 | N 5.5 | |
| Oggi h: 05:00 | Molto Nuvoloso | 19 | 18 | 93 | 1014 | 10 | N 3.7 | |
| Oggi h: 04:30 | Sereno | 19 | 18 | 93 | 1013 | 7 | N 5.5 | |
| Oggi h: 04:00 | Molto Nuvoloso | 19 | 18 | 93 | 1013 | 10 | E/NE 7.4 | |
| Oggi h: 03:30 | Molto Nuvoloso | 19 | 19 | 100 | 1013 | 10 | N 3.7 | |
| Oggi h: 03:00 | Temporale | 19 | 19 | 100 | 1014 | 5 | N 5.5 | |
| Oggi h: 02:30 | Pioggia | 20 | 19 | 93 | 1014 | 8 | SE 7.4 | |
| Oggi h: 02:00 | Temporale | 19 | 18 | 93 | 1014 | 4 | N 5.5 | |
| Oggi h: 01:30 | Temporale | 20 | 19 | 93 | 1014 | 2 | SE 20.3 | |
| Oggi h: 01:00 | Molto Nuvoloso | 21 | 20 | 94 | 1014 | 10 | N 3.7 | |
| Oggi h: 00:30 | Molto Nuvoloso | 21 | 20 | 94 | 1014 | 10 | N 5.5 | |
| Oggi h: 00:00 | Molto Nuvoloso | 22 | 20 | 88 | 1014 | 10 | N 3.7 | |
| Ieri h: 23:30 | Nuvoloso | 22 | 20 | 88 | 1014 | 10 | N 3.7 | |
| Ieri h: 23:00 | Nuvoloso | 22 | 20 | 88 | 1014 | 10 | N 5.5 | |
| Ieri h: 22:30 | Molto Nuvoloso | 22 | 20 | 88 | 1014 | 10 | S 7.4 | |
| Ieri h: 22:00 | Molto Nuvoloso | 23 | 20 | 83 | 1014 | 10 | N 3.7 | |
| Ieri h: 21:30 | Molto Nuvoloso | 23 | 20 | 83 | 1014 | 10 | N 3.7 | |
| Ieri h: 21:00 | Molto Nuvoloso | 23 | 20 | 83 | 1013 | 10 | N 3.7 | |
| Ieri h: 20:30 | Nuvoloso | 23 | 20 | 83 | 1013 | 10 | N 5.5 | |
| Ieri h: 20:00 | Molto Nuvoloso | 23 | 20 | 83 | 1013 | 10 | NO 7.4 | |
| Ieri h: 19:30 | Molto Nuvoloso | 24 | 19 | 73 | 1013 | 10 | O/NO 11.1 | |
| Ieri h: 19:00 | Molto Nuvoloso | 24 | 20 | 78 | 1012 | 10 | O 9.3 | |
| Ieri h: 18:30 | Molto Nuvoloso | 25 | 19 | 69 | 1012 | 10 | O 16.7 | |
| Ieri h: 18:00 | Molto Nuvoloso | 25 | 20 | 73 | 1012 | 10 | O 11.1 | |



